• en France
  • Liste des pays
  • À 7 jours
  • Température de l'eau
  • Carte satellitaire
  • Carte météo
  • Widgets météo
  • user-avatar
    Se connecter

    Météo par heure à Escaldes-Engordany

    Ce jour, 16 Janvier, Mardi

    Heure Température Précipitation Vent Pression Humidité
    00:00 -2°C° 0 mm 2 m/s 639 mmHg 73%
    01:00 -2°C° 0 mm 2 m/s 638 mmHg 75%
    02:00 -2°C° 0 mm 2 m/s 638 mmHg 78%
    03:00 -1°C° 0 mm 2 m/s 638 mmHg 80%
    04:00 -1°C° 0 mm 2 m/s 638 mmHg 82%
    05:00 -1°C° 0 mm 2 m/s 638 mmHg 83%
    06:00 -1°C° 0 mm 2 m/s 638 mmHg 86%
    07:00 +1°C° 0 mm 2 m/s 638 mmHg 84%
    08:00 +2°C° 0 mm 2 m/s 639 mmHg 83%
    09:00 +3°C° 0 mm 2 m/s 640 mmHg 81%
    10:00 +4°C° 0 mm 2 m/s 640 mmHg 79%
    11:00 +6°C° 0 mm 2 m/s 640 mmHg 77%
    12:00 +7°C° 0 mm 3 m/s 641 mmHg 75%
    13:00 +7°C° 0 mm 2 m/s 640 mmHg 75%
    14:00 +7°C° 0 mm 2 m/s 640 mmHg 75%
    15:00 +7°C° 0 mm 2 m/s 640 mmHg 74%
    16:00 +6°C° 0 mm 2 m/s 639 mmHg 78%
    17:00 +4°C° 0 mm 2 m/s 639 mmHg 81%
    18:00 +2°C° 0 mm 2 m/s 638 mmHg 85%
    19:00 +2°C° 0 mm 2 m/s 638 mmHg 84%
    20:00 +2°C° 0 mm 2 m/s 638 mmHg 84%
    21:00 +2°C° 0 mm 2 m/s 638 mmHg 84%
    22:00 +2°C° 0 mm 2 m/s 638 mmHg 85%
    23:00 +2°C° 0 mm 2 m/s 637 mmHg 85%

    Demain, 17 Janvier, Mercredi

    Heure Température Précipitation Vent Pression Humidité
    00:00 0°C° 0 mm 3 m/s 637 mmHg 86%
    01:00 0°C° 0 mm 3 m/s 637 mmHg 87%
    02:00 0°C° 0 mm 3 m/s 637 mmHg 87%
    03:00 0°C° 0 mm 3 m/s 637 mmHg 88%
    04:00 -1°C° 0,1 mm 4 m/s 637 mmHg 87%
    05:00 -2°C° 0,1 mm 4 m/s 637 mmHg 86%
    06:00 -2°C° 0,1 mm 4 m/s 637 mmHg 84%
    07:00 -2°C° 0,1 mm 4 m/s 638 mmHg 81%
    08:00 -1°C° 0,1 mm 4 m/s 639 mmHg 78%
    09:00 -1°C° 0,1 mm 4 m/s 639 mmHg 75%
    10:00 0°C° 0,1 mm 4 m/s 640 mmHg 72%
    11:00 0°C° 0,1 mm 4 m/s 640 mmHg 68%
    12:00 +1°C° 0,1 mm 4 m/s 641 mmHg 65%
    13:00 +1°C° 0 mm 4 m/s 641 mmHg 64%
    14:00 +1°C° 0 mm 4 m/s 641 mmHg 63%
    15:00 +1°C° 0 mm 4 m/s 641 mmHg 63%
    16:00 0°C° 0 mm 3 m/s 641 mmHg 67%
    17:00 -1°C° 0 mm 3 m/s 641 mmHg 72%
    18:00 -4°C° 0 mm 3 m/s 641 mmHg 77%
    19:00 -3°C° 0 mm 2 m/s 641 mmHg 77%
    20:00 -3°C° 0 mm 2 m/s 642 mmHg 77%
    21:00 -3°C° 0 mm 2 m/s 642 mmHg 77%
    22:00 -3°C° 0 mm 2 m/s 642 mmHg 76%
    23:00 -3°C° 0 mm 2 m/s 642 mmHg 75%

    Après-demain, 18 Janvier, Jeudi

    Heure Température Précipitation Vent Pression Humidité
    00:00 -3°C° 0 mm 2 m/s 642 mmHg 74%
    01:00 -1°C° 0 mm 1 m/s 642 mmHg 73%
    02:00 -1°C° 0 mm 1 m/s 642 mmHg 73%
    03:00 -2°C° 0 mm 1 m/s 642 mmHg 72%
    04:00 -1°C° 0 mm 1 m/s 641 mmHg 72%
    05:00 -1°C° 0 mm 1 m/s 641 mmHg 72%
    06:00 -1°C° 0 mm 1 m/s 641 mmHg 72%
    07:00 0°C° 0 mm 1 m/s 642 mmHg 70%
    08:00 +1°C° 0 mm 1 m/s 642 mmHg 69%
    09:00 +2°C° 0 mm 1 m/s 642 mmHg 67%
    10:00 +3°C° 0 mm 1 m/s 642 mmHg 65%
    11:00 +5°C° 0 mm 1 m/s 642 mmHg 63%
    12:00 +6°C° 0 mm 1 m/s 642 mmHg 62%
    13:00 +6°C° 0 mm 1 m/s 642 mmHg 62%
    14:00 +6°C° 0 mm 1 m/s 641 mmHg 63%
    15:00 +6°C° 0 mm 1 m/s 641 mmHg 64%
    16:00 +5°C° 0 mm 1 m/s 640 mmHg 68%
    17:00 +3°C° 0 mm 1 m/s 639 mmHg 72%
    18:00 +1°C° 0 mm 1 m/s 639 mmHg 76%
    19:00 +1°C° 0 mm 1 m/s 639 mmHg 74%
    20:00 +1°C° 0 mm 1 m/s 639 mmHg 73%
    21:00 +1°C° 0 mm 1 m/s 639 mmHg 71%
    22:00 +1°C° 0 mm 1 m/s 638 mmHg 71%
    23:00 +1°C° 0 mm 1 m/s 638 mmHg 71%

    19 Janvier, Vendredi

    Heure Température Précipitation Vent Pression Humidité
    00:00 +1°C° 0 mm 1 m/s 638 mmHg 71%
    01:00 +1°C° 0 mm 1 m/s 637 mmHg 72%
    02:00 +1°C° 0 mm 1 m/s 637 mmHg 73%
    03:00 -1°C° 0 mm 2 m/s 636 mmHg 74%
    04:00 -1°C° 0 mm 2 m/s 636 mmHg 75%
    05:00 +1°C° 0 mm 2 m/s 636 mmHg 77%
    06:00 +1°C° 0 mm 2 m/s 636 mmHg 79%
    07:00 +2°C° 0,1 mm 2 m/s 636 mmHg 80%
    08:00 +2°C° 0,1 mm 2 m/s 636 mmHg 81%
    09:00 +3°C° 0,1 mm 2 m/s 637 mmHg 83%
    10:00 +3°C° 0,1 mm 2 m/s 637 mmHg 79%
    11:00 +4°C° 0,1 mm 2 m/s 637 mmHg 76%
    12:00 +4°C° 0,1 mm 2 m/s 637 mmHg 72%
    13:00 +3°C° 0,3 mm 3 m/s 636 mmHg 73%
    14:00 +2°C° 0,3 mm 3 m/s 636 mmHg 74%
    15:00 +1°C° 0,3 mm 4 m/s 636 mmHg 75%
    16:00 0°C° 0,1 mm 3 m/s 636 mmHg 76%
    17:00 -1°C° 0,1 mm 3 m/s 635 mmHg 78%
    18:00 -2°C° 0,1 mm 3 m/s 635 mmHg 80%
    19:00 -4°C° 0,1 mm 3 m/s 635 mmHg 80%
    20:00 -4°C° 0,1 mm 3 m/s 635 mmHg 80%
    21:00 -5°C° 0,1 mm 3 m/s 636 mmHg 80%
    22:00 -5°C° 0,1 mm 3 m/s 635 mmHg 80%
    23:00 -5°C° 0,1 mm 3 m/s 635 mmHg 79%

    20 Janvier, Samedi

    Heure Température Précipitation Vent Pression Humidité
    00:00 -6°C° 0,1 mm 3 m/s 635 mmHg 79%
    01:00 -5°C° 0,4 mm 3 m/s 634 mmHg 79%
    02:00 -5°C° 0,4 mm 3 m/s 634 mmHg 79%
    03:00 -5°C° 0,4 mm 3 m/s 634 mmHg 80%
    04:00 -5°C° 1 mm 3 m/s 634 mmHg 82%
    05:00 -5°C° 1 mm 3 m/s 634 mmHg 85%
    06:00 -5°C° 1 mm 3 m/s 634 mmHg 87%
    07:00 -5°C° 1,3 mm 3 m/s 635 mmHg 87%
    08:00 -5°C° 1,3 mm 3 m/s 635 mmHg 87%
    09:00 -5°C° 1,3 mm 3 m/s 635 mmHg 87%
    10:00 -5°C° 1,3 mm 3 m/s 636 mmHg 84%
    11:00 -4°C° 1,3 mm 3 m/s 636 mmHg 82%
    12:00 -4°C° 1,3 mm 4 m/s 636 mmHg 79%
    13:00 -4°C° 0,8 mm 4 m/s 636 mmHg 78%
    14:00 -2°C° 0,8 mm 3 m/s 636 mmHg 76%
    15:00 -2°C° 0,8 mm 3 m/s 636 mmHg 75%
    16:00 -4°C° 0,5 mm 3 m/s 636 mmHg 78%
    17:00 -4°C° 0,5 mm 3 m/s 636 mmHg 81%
    18:00 -4°C° 0,5 mm 2 m/s 636 mmHg 84%
    19:00 -4°C° 0,4 mm 2 m/s 636 mmHg 86%
    20:00 -4°C° 0,4 mm 2 m/s 636 mmHg 88%
    21:00 -2°C° 0,4 mm 1 m/s 636 mmHg 89%
    22:00 -1°C° 1,2 mm 1 m/s 636 mmHg 91%
    23:00 -1°C° 1,2 mm 1 m/s 636 mmHg 92%

    21 Janvier, Dimanche

    Heure Température Précipitation Vent Pression Humidité
    00:00 -1°C° 1,2 mm 1 m/s 635 mmHg 93%
    01:00 -1°C° 1,8 mm 1 m/s 635 mmHg 94%
    02:00 -1°C° 1,8 mm 1 m/s 635 mmHg 94%
    03:00 0°C° 1,8 mm 1 m/s 635 mmHg 95%
    04:00 0°C° 1,7 mm 1 m/s 635 mmHg 95%
    05:00 0°C° 1,7 mm 1 m/s 636 mmHg 94%
    06:00 +1°C° 1,7 mm 1 m/s 636 mmHg 94%
    07:00 -1°C° 0,8 mm 2 m/s 636 mmHg 93%
    08:00 +1°C° 0,8 mm 2 m/s 637 mmHg 93%
    09:00 +1°C° 0,8 mm 2 m/s 637 mmHg 92%
    10:00 +2°C° 0,3 mm 2 m/s 638 mmHg 91%
    11:00 +2°C° 0,3 mm 3 m/s 638 mmHg 90%
    12:00 +2°C° 0,3 mm 3 m/s 639 mmHg 89%
    13:00 +2°C° 0,1 mm 3 m/s 639 mmHg 89%
    14:00 +3°C° 0,1 mm 3 m/s 639 mmHg 89%
    15:00 +3°C° 0,1 mm 3 m/s 639 mmHg 88%
    16:00 +2°C° 0,1 mm 3 m/s 639 mmHg 90%
    17:00 +2°C° 0,1 mm 2 m/s 639 mmHg 92%
    18:00 +1°C° 0,1 mm 2 m/s 639 mmHg 93%
    19:00 +2°C° 0,4 mm 2 m/s 639 mmHg 94%
    20:00 +2°C° 0,4 mm 2 m/s 640 mmHg 95%
    21:00 +2°C° 0,4 mm 2 m/s 640 mmHg 95%
    22:00 +2°C° 0,4 mm 2 m/s 640 mmHg 95%
    23:00 +2°C° 0,4 mm 2 m/s 640 mmHg 96%
    Voir plus